| time (UTC) | temp C | wind direction | speed KPH | gust KPH | rain 1hr cm | rain 24hr cm | rain mn cm | humidity % | barometer mb |
| 20260507003037 | 10 | 117 | 0.0 | 8.0 | 0.18 | 0.36 | 0.25 | 91 | 1009.8 |
| 20260507002017 | 10 | 151 | 0.0 | 4.8 | 0.15 | 0.33 | 0.23 | 92 | 1009.8 |
| 20260507001017 | 10 | 126 | 0.0 | 11.3 | 0.15 | 0.30 | 0.20 | 91 | 1009.8 |
| 20260507000016 | 11 | 340 | 0.0 | 9.7 | 0.10 | 0.25 | 0.15 | 91 | 1009.8 |
| 20260506235017 | 11 | 355 | 0.0 | 11.3 | 0.08 | 0.23 | 0.15 | 91 | 1009.9 |
| 20260506234017 | 11 | 351 | 1.6 | 6.4 | 0.05 | 0.20 | 0.10 | 91 | 1009.8 |
| 20260506233037 | 11 | 25 | 0.0 | 8.0 | 0.05 | 0.18 | 0.08 | 91 | 1009.7 |
| 20260506232017 | 11 | 37 | 0.0 | 6.4 | 0.08 | 0.18 | 0.08 | 91 | 1009.7 |
| 20260506231017 | 11 | 48 | 1.6 | 11.3 | 0.05 | 0.15 | 0.05 | 91 | 1009.5 |
| 20260506230017 | 11 | 109 | 0.0 | 9.7 | 0.05 | 0.15 | 0.05 | 90 | 1009.4 |
| 20260506225017 | 11 | 122 | 0.0 | 8.0 | 0.08 | 0.15 | 0.05 | 90 | 1009.4 |
| 20260506224017 | 12 | 126 | 0.0 | 8.0 | 0.08 | 0.15 | 0.05 | 91 | 1009.3 |
| 20260506223017 | 12 | 125 | 0.0 | 8.0 | 0.08 | 0.13 | 0.03 | 91 | 1009.3 |
| 20260506222017 | 12 | 119 | 1.6 | 8.0 | 0.08 | 0.10 | 0.00 | 91 | 1009.2 |
| 20260506221017 | 12 | 131 | 0.0 | 8.0 | 0.08 | 0.10 | 0.00 | 91 | 1009.1 |
| 20260506220017 | 12 | 130 | 0.0 | 12.9 | 0.10 | 0.13 | 0.00 | 91 | 1009.0 |
| 20260506215017 | 12 | 127 | 3.2 | 12.9 | 0.08 | 0.10 | 0.10 | 91 | 1009.0 |
| 20260506214017 | 12 | 127 | 1.6 | 11.3 | 0.05 | 0.10 | 0.08 | 90 | 1008.9 |
| 20260506213017 | 12 | 135 | 1.6 | 11.3 | 0.05 | 0.08 | 0.05 | 90 | 1008.8 |
| 20260506212017 | 12 | 129 | 1.6 | 14.5 | 0.03 | 0.05 | 0.05 | 90 | 1008.7 |
| 20260506211017 | 12 | 125 | 3.2 | 11.3 | 0.03 | 0.05 | 0.05 | 89 | 1008.7 |
| 20260506210017 | 12 | 128 | 1.6 | 8.0 | 0.00 | 0.05 | 0.03 | 89 | 1008.7 |
| 20260506205017 | 12 | 128 | 1.6 | 8.0 | 0.00 | 0.05 | 0.03 | 88 | 1008.7 |
| 20260506204017 | 12 | 130 | 1.6 | 9.7 | 0.00 | 0.05 | 0.03 | 87 | 1008.6 |
| 20260506203017 | 13 | 130 | 0.0 | 14.5 | 0.00 | 0.05 | 0.03 | 86 | 1008.6 |
| 20260506202017 | 13 | 122 | 1.6 | 11.3 | 0.00 | 0.05 | 0.03 | 85 | 1008.5 |
| 20260506201017 | 13 | 8 | 1.6 | 11.3 | 0.00 | 0.05 | 0.03 | 85 | 1008.4 |
| 20260506200017 | 13 | 117 | 0.0 | 8.0 | 0.00 | 0.05 | 0.03 | 85 | 1008.3 |
| 20260506195037 | 13 | 0.0 | 4.8 | 0.00 | 0.05 | 0.03 | 85 | 1008.3 | |
| 20260506194017 | 13 | 111 | 0.0 | 9.7 | 0.00 | 0.05 | 0.03 | 85 | 1008.1 |
| 20260506193017 | 13 | 127 | 1.6 | 11.3 | 0.00 | 0.05 | 0.03 | 84 | 1008.0 |
| 20260506192017 | 13 | 124 | 0.0 | 6.4 | 0.00 | 0.05 | 0.03 | 84 | 1007.8 |
| 20260506191017 | 13 | 124 | 0.0 | 6.4 | 0.00 | 0.05 | 0.03 | 84 | 1007.7 |
| 20260506190018 | 13 | 103 | 0.0 | 6.4 | 0.00 | 0.05 | 0.03 | 83 | 1007.6 |
| 20260506185017 | 13 | 122 | 0.0 | 6.4 | 0.00 | 0.05 | 0.03 | 82 | 1007.5 |
| 20260506184017 | 13 | 120 | 0.0 | 12.9 | 0.00 | 0.05 | 0.03 | 82 | 1007.2 |
| 20260506183017 | 13 | 128 | 1.6 | 11.3 | 0.00 | 0.05 | 0.03 | 81 | 1007.0 |
| 20260506182057 | 13 | 88 | 0.0 | 9.7 | 0.00 | 0.05 | 0.03 | 81 | 1006.9 |
| 20260506181037 | 14 | 124 | 1.6 | 11.3 | 0.00 | 0.05 | 0.03 | 80 | 1006.9 |
| 20260506180037 | 14 | 54 | 0.0 | 16.1 | 0.00 | 0.05 | 0.03 | 79 | 1006.9 |
| 20260506175017 | 14 | 127 | 1.6 | 14.5 | 0.00 | 0.05 | 0.03 | 79 | 1006.7 |
| 20260506174017 | 15 | 126 | 1.6 | 12.9 | 0.00 | 0.05 | 0.03 | 78 | 1006.7 |
| 20260506173017 | 15 | 131 | 1.6 | 17.7 | 0.00 | 0.05 | 0.03 | 79 | 1006.6 |
| 20260506172017 | 15 | 100 | 1.6 | 16.1 | 0.00 | 0.05 | 0.03 | 78 | 1006.6 |
| 20260506171017 | 16 | 57 | 1.6 | 11.3 | 0.00 | 0.05 | 0.03 | 75 | 1006.4 |
| 20260506170017 | 16 | 121 | 3.2 | 11.3 | 0.00 | 0.08 | 0.03 | 72 | 1006.4 |
| 20260506165017 | 16 | 356 | 0.0 | 6.4 | 0.00 | 0.13 | 0.03 | 71 | 1006.2 |
| 20260506164017 | 16 | 38 | 0.0 | 11.3 | 0.00 | 0.15 | 0.03 | 69 | 1006.1 |
| 20260506163017 | 16 | 39 | 0.0 | 8.0 | 0.00 | 0.18 | 0.03 | 67 | 1006.0 |
| 20260506162017 | 16 | 2 | 1.6 | 12.9 | 0.00 | 0.20 | 0.03 | 68 | 1006.0 |
| 20260506161017 | 16 | 89 | 0.0 | 1.6 | 0.00 | 0.23 | 0.03 | 72 | 1006.1 |
| 20260506160017 | 16 | 125 | 4.8 | 14.5 | 0.00 | 0.23 | 0.03 | 72 | 1006.1 |
| 20260506155017 | 16 | 120 | 0.0 | 3.2 | 0.00 | 0.28 | 0.03 | 73 | 1006.1 |
| 20260506154017 | 16 | 127 | 0.0 | 4.8 | 0.00 | 0.33 | 0.03 | 72 | 1006.1 |
| 20260506153017 | 17 | 121 | 1.6 | 6.4 | 0.00 | 0.43 | 0.03 | 71 | 1006.1 |
| 20260506152017 | 17 | 122 | 3.2 | 11.3 | 0.00 | 0.56 | 0.03 | 70 | 1006.1 |
| 20260506151017 | 17 | 121 | 4.8 | 9.7 | 0.00 | 0.71 | 0.03 | 68 | 1006.0 |
| 20260506150017 | 17 | 120 | 4.8 | 11.3 | 0.00 | 0.84 | 0.03 | 67 | 1006.0 |
| 20260506145017 | 18 | 118 | 1.6 | 8.0 | 0.00 | 0.91 | 0.03 | 64 | 1006.0 |
| 20260506144017 | 18 | 0.0 | 1.6 | 0.00 | 0.99 | 0.03 | 60 | 1005.9 | |
| 20260506143017 | 18 | 136 | 0.0 | 1.6 | 0.00 | 1.07 | 0.03 | 59 | 1005.9 |
| 20260506142017 | 18 | 357 | 0.0 | 9.7 | 0.00 | 1.19 | 0.03 | 58 | 1006.0 |
| 20260506141017 | 19 | 332 | 0.0 | 3.2 | 0.00 | 1.32 | 0.03 | 57 | 1006.0 |
| 20260506140017 | 19 | 314 | 0.0 | 8.0 | 0.00 | 1.37 | 0.03 | 56 | 1005.9 |
| 20260506135017 | 19 | 359 | 0.0 | 3.2 | 0.00 | 1.42 | 0.03 | 56 | 1005.9 |
| 20260506134017 | 18 | 0.0 | 0.0 | 0.00 | 1.42 | 0.03 | 60 | 1005.9 | |
| 20260506133017 | 18 | 128 | 0.0 | 6.4 | 0.00 | 1.42 | 0.03 | 59 | 1005.9 |
| 20260506132017 | 18 | 3 | 0.0 | 3.2 | 0.00 | 1.42 | 0.03 | 58 | 1005.9 |
| 20260506131017 | 18 | 354 | 1.6 | 14.5 | 0.00 | 1.42 | 0.03 | 60 | 1006.0 |
| 20260506130017 | 18 | 346 | 1.6 | 9.7 | 0.00 | 1.42 | 0.03 | 58 | 1005.9 |
| 20260506125017 | 19 | 357 | 0.0 | 9.7 | 0.00 | 1.42 | 0.03 | 58 | 1005.9 |
| 20260506124017 | 18 | 356 | 0.0 | 3.2 | 0.00 | 1.42 | 0.03 | 59 | 1005.9 |
| 20260506123017 | 18 | 128 | 0.0 | 11.3 | 0.00 | 1.42 | 0.03 | 59 | 1005.9 |
| 20260506122037 | 18 | 84 | 0.0 | 3.2 | 0.00 | 1.42 | 0.03 | 60 | 1006.1 |
| 20260506121017 | 19 | 23 | 0.0 | 6.4 | 0.00 | 1.42 | 0.03 | 61 | 1006.1 |
| 20260506120037 | 19 | 353 | 0.0 | 6.4 | 0.00 | 1.42 | 0.03 | 62 | 1006.1 |
| 20260506115017 | 18 | 356 | 1.6 | 11.3 | 0.00 | 1.42 | 0.03 | 63 | 1006.2 |
| 20260506114017 | 18 | 0 | 1.6 | 6.4 | 0.00 | 1.42 | 0.03 | 65 | 1006.3 |
| 20260506113017 | 17 | 5 | 0.0 | 3.2 | 0.00 | 1.42 | 0.03 | 65 | 1006.3 |
| 20260506112037 | 17 | 83 | 3.2 | 14.5 | 0.00 | 1.42 | 0.03 | 64 | 1006.3 |
| 20260506111017 | 17 | 354 | 0.0 | 4.8 | 0.00 | 1.42 | 0.03 | 67 | 1006.4 |
| 20260506110017 | 17 | 349 | 0.0 | 3.2 | 0.00 | 1.42 | 0.03 | 66 | 1006.5 |
| 20260506105017 | 17 | 359 | 0.0 | 8.0 | 0.00 | 1.42 | 0.03 | 66 | 1006.5 |
| 20260506104017 | 18 | 131 | 0.0 | 8.0 | 0.00 | 1.42 | 0.03 | 64 | 1006.6 |
| 20260506103017 | 17 | 125 | 1.6 | 11.3 | 0.00 | 1.42 | 0.03 | 67 | 1006.6 |
| 20260506102037 | 17 | 339 | 0.0 | 1.6 | 0.00 | 1.42 | 0.03 | 70 | 1006.6 |
| 20260506101037 | 17 | 354 | 0.0 | 8.0 | 0.00 | 1.42 | 0.03 | 70 | 1006.6 |
| 20260506100017 | 17 | 354 | 0.0 | 11.3 | 0.00 | 1.42 | 0.03 | 68 | 1006.6 |
| 20260506095017 | 17 | 352 | 1.6 | 4.8 | 0.00 | 1.42 | 0.03 | 70 | 1006.6 |
| 20260506094017 | 17 | 346 | 1.6 | 8.0 | 0.00 | 1.42 | 0.03 | 72 | 1006.7 |
| 20260506093018 | 17 | 123 | 0.0 | 4.8 | 0.00 | 1.42 | 0.03 | 72 | 1006.7 |
| 20260506092017 | 16 | 124 | 3.2 | 14.5 | 0.00 | 1.42 | 0.03 | 73 | 1006.8 |
| 20260506091017 | 16 | 127 | 1.6 | 14.5 | 0.00 | 1.42 | 0.03 | 76 | 1006.8 |
| 20260506090017 | 15 | 127 | 0.0 | 4.8 | 0.00 | 1.42 | 0.03 | 78 | 1006.9 |
| 20260506085017 | 16 | 0.0 | 0.0 | 0.00 | 1.42 | 0.03 | 78 | 1006.9 | |
| 20260506084037 | 15 | 126 | 0.0 | 4.8 | 0.00 | 1.42 | 0.03 | 78 | 1006.9 |
| 20260506083017 | 16 | 34 | 0.0 | 9.7 | 0.00 | 1.42 | 0.03 | 79 | 1007.0 |
| 20260506082037 | 15 | 1 | 1.6 | 6.4 | 0.00 | 1.42 | 0.03 | 79 | 1006.9 |
| 20260506081017 | 15 | 124 | 3.2 | 14.5 | 0.00 | 1.42 | 0.03 | 80 | 1006.7 |
| 20260506073017 | 13 | 126 | 1.6 | 12.9 | 0.00 | 1.42 | 0.03 | 85 | 1006.8 |
| 20260506072017 | 13 | 0.0 | 0.0 | 0.00 | 1.42 | 0.03 | 87 | 1006.8 | |
| 20260506071017 | 13 | 0.0 | 0.0 | 0.00 | 1.42 | 0.03 | 89 | 1006.9 | |
| 20260506062017 | 12 | 0.0 | 0.0 | 0.00 | 1.42 | 0.03 | 93 | 1006.8 | |
| 20260506061017 | 12 | 0.0 | 0.0 | 0.00 | 1.42 | 0.03 | 93 | 1006.8 | |
| 20260506051017 | 12 | 124 | 0.0 | 8.0 | 0.00 | 1.42 | 0.03 | 93 | 1007.0 |
| 20260506045017 | 12 | 0.0 | 3.2 | 0.00 | 1.42 | 0.03 | 93 | 1006.9 | |
| 20260506044018 | 12 | 0.0 | 1.6 | 0.00 | 1.42 | 0.03 | 93 | 1006.9 | |
| 20260506043017 | 12 | 124 | 0.0 | 1.6 | 0.00 | 1.42 | 0.03 | 94 | 1006.9 |
| 20260506042017 | 12 | 124 | 0.0 | 1.6 | 0.00 | 1.42 | 0.03 | 94 | 1007.0 |
| 20260506041017 | 12 | 0.0 | 0.0 | 0.00 | 1.42 | 0.03 | 94 | 1006.9 | |
| 20260506040038 | 12 | 148 | 0.0 | 4.8 | 0.00 | 1.42 | 0.03 | 94 | 1006.8 |
| 20260506035018 | 12 | 0.0 | 0.0 | 0.00 | 1.42 | 0.03 | 94 | 1006.8 | |
| 20260506034018 | 12 | 0.0 | 0.0 | 0.00 | 1.42 | 0.03 | 94 | 1007.0 | |
| 20260506033017 | 12 | 0.0 | 0.0 | 0.00 | 1.42 | 0.03 | 93 | 1007.1 | |
| 20260506032018 | 12 | 129 | 0.0 | 3.2 | 0.00 | 1.42 | 0.03 | 93 | 1007.2 |
| 20260506031017 | 12 | 117 | 0.0 | 1.6 | 0.00 | 1.42 | 0.03 | 93 | 1007.2 |
| 20260506030017 | 12 | 117 | 0.0 | 6.4 | 0.00 | 1.42 | 0.03 | 92 | 1007.2 |
| 20260506025018 | 12 | 129 | 1.6 | 9.7 | 0.00 | 1.42 | 0.03 | 92 | 1007.2 |
| 20260506024017 | 12 | 109 | 0.0 | 14.5 | 0.00 | 1.42 | 0.03 | 93 | 1007.2 |
| 20260506023017 | 12 | 131 | 0.0 | 8.0 | 0.00 | 1.42 | 0.03 | 93 | 1007.2 |
| 20260506022017 | 12 | 130 | 0.0 | 3.2 | 0.00 | 1.42 | 0.03 | 93 | 1007.1 |
| 20260506021017 | 12 | 121 | 0.0 | 1.6 | 0.00 | 1.42 | 0.03 | 93 | 1007.2 |
| 20260506020017 | 12 | 0.0 | 1.6 | 0.00 | 1.42 | 0.03 | 93 | 1007.1 | |
| 20260506015017 | 12 | 115 | 0.0 | 4.8 | 0.00 | 1.42 | 0.03 | 93 | 1007.2 |
| 20260506014018 | 12 | 119 | 0.0 | 3.2 | 0.00 | 1.42 | 0.03 | 93 | 1007.2 |
| 20260506013017 | 12 | 132 | 0.0 | 8.0 | 0.00 | 1.42 | 0.03 | 93 | 1007.2 |
| 20260506012017 | 13 | 0.0 | 0.0 | 0.00 | 1.42 | 0.03 | 93 | 1007.2 | |
| 20260506011017 | 13 | 121 | 0.0 | 12.9 | 0.00 | 1.42 | 0.03 | 94 | 1007.3 |
| 20260506010139 | 13 | 130 | 1.6 | 12.9 | 0.00 | 1.42 | 0.03 | 94 | 1007.4 |
| 20260506005017 | 12 | 122 | 0.0 | 6.4 | 0.00 | 1.42 | 0.03 | 94 | 1007.4 |
| 20260506004057 | 12 | 121 | 0.0 | 9.7 | 0.00 | 1.42 | 0.03 | 94 | 1007.5 |